This demonstration page uses our WeatherBlox Daily Observations layout. Learn more.

Left ArrowRight Arrow

Hourly Observations for July 11, 2020

Temp ( °F °C ) Dew Point ( °F °C ) Humidity (%) Winds ( mph kmh ) Pressure ( in mb ) Visibility ( mi km ) Precip ( " mm )
12:51 am 00:51 Clear 88 31.1 46 7.8 23 23 NNW 7 11 29.76 1008 10 16.0934 0 0
1:51 am 01:51 Clear 90 32.2 46 7.8 22 22 NNW 13 20 29.75 1008 10 16.0934 0 0
2:51 am 02:51 Clear 89 31.7 48 8.9 24 24 NW 12 19 29.75 1008 10 16.0934 0 0
3:51 am 03:51 Clear 87 30.6 48 8.9 26 26 NW 13 20 29.77 1008 10 16.0934 0 0
4:51 am 04:51 Clear 88 31.1 50 10 27 27 NW 15 24 29.79 1009 10 16.0934 0 0
5:51 am 05:51 Sunny 88 31.1 50 10 27 27 NW 12 19 29.81 1009 10 16.0934 0 0
6:51 am 06:51 Sunny 91 32.8 52 11.1 26 26 WNW 16 26 29.83 1010 10 16.0934 0 0
7:51 am 07:51 Sunny 93 33.9 52 11.1 25 25 WNW 20 31 29.84 1011 10 16.0934 0 0
8:51 am 08:51 Sunny 95 35 53 11.7 24 24 WNW 15 24 29.84 1010 10 16.0934 0 0
9:51 am 09:51 Sunny 99 37.2 53 11.7 21 21 W 13 20 29.84 1011 10 16.0934 0 0
10:51 am 10:51 Sunny 103 39.4 50 10 17 17 undefined N/A 29.83 1010 10 16.0934 0 0
11:51 am 11:51 Sunny 105 40.6 49 9.4 15 15 WNW 8 13 29.81 1010 10 16.0934 0 0
12:51 pm 12:51 Sunny 107 41.7 46 7.8 13 13 Calm 29.78 1008 10 16.0934 0 0
1:51 pm 13:51 Sunny 108 42.2 46 7.8 12 12 Calm 29.74 1007 10 16.0934 0 0
2:51 pm 14:51 Sunny 111 43.9 44 6.7 10 10 NNE 7 11 29.72 1006 10 16.0934 0 0
3:51 pm 15:51 Sunny 114 45.6 43 6.1 9 9 undefined N/A 29.7 1006 10 16.0934 0 0
4:51 pm 16:51 Sunny 105 40.6 46 7.8 14 14 NE 29 46 29.71 1006 10 16.0934 0 0
5:51 pm 17:51 Sunny 103 39.4 45 7.2 14 14 NNE 17 28 29.71 1006 10 16.0934 0 0
6:13 pm 18:13 Sunny 93 33.9 53 11.7 26 26 W 26 43 29.66 1004 10 16.0934 0 0
6:51 pm 18:51 Sunny 91 32.8 55 12.8 30 30 W 22 35 29.76 1008 10 16.0934 0 0
7:51 pm 19:51 Clear 93 33.9 52 11.1 25 25 NNW 14 22 29.76 1008 10 16.0934 0 0
8:51 pm 20:51 Clear 93 33.9 51 10.6 24 24 WSW 3 6 29.79 1009 10 16.0934 0 0
9:51 pm 21:51 Clear 96 35.6 48 8.9 19 19 NW 7 11 29.78 1008 10 16.0934 0 0
10:51 pm 22:51 Clear 88 31.1 57 13.9 35 35 NW 9 15 29.78 1009 10 16.0934 0 0
11:51 pm 23:51 Clear 87 30.6 53 11.7 31 31 WNW 9 15 29.78 1009 10 16.0934 0 0

Powered by AerisWeather